Starlink 3762

operational
NORAD ID: 52374 Int'l Des: 2022-045 Owner: SPXS Country: US Constellation: starlink
LEOCIRCULAR

关于 Starlink 3762

正在加载描述...

实时位置

正在加载3D地球...

即将过境

高度历史

Altitude vs Time

uPlot chart will show altitude changes over time

两行轨道根数

1 52374U 22045AV 25354.72800125 .00000339 00000-0 39414-4 0 9998
2 52374 53.2163 183.5945 0001537 89.9997 270.1171 15.08838946204002
Epoch: Dec 20, 2025 • Age: 14 hours

当前状态

高度 543.1 km
速度 7.59 km/s
星下点 -11.53°S, 33.68°W
发射日期 Apr 29, 2022
运行时间 3.6 years
类型 internet

技术详情

分类 Payload
质量 297.00 kg
干质量 275.00 kg
总质量 297.00 kg
长度 0.20 m
直径 2.80 m
跨度 9.00 m
形状 Box + pan
制造商 SPXS
平台类型 Starlink
阶段状态 In Orbit
所有者/国家 SPXS/US

大型星座

Loading constellations...